Location: ?p Dangia
(12.0167°N, 108.4333°E)
Time: 12:44:55
(UTC+00:00)

Palapa 6 Rocket - Pass Details

Date: 07 June 2020
Orbit: 485 x 1217 km, 22.7° (Epoch: 14 July)

Event Time Altitude Azimuth Distance (km) Brightness Sun altitude
Rises 11:27:19 0° 223° (SW) 2,532 6.5 -4.8°
Reaches altitude 10° 11:29:45 10° 208° (SSW) 1,682 5.4 -5.3°
Maximum altitude 11:32:51 23° 153° (SSE) 1,123 4.0 -6.0°
Drops below altitude 10° 11:36:15 10° 99° (E) 1,855 4.9 -6.8°
Enters shadow 11:37:07 - 94° (E) 2,155 5.3 -7.0°
